Location: Duni�res
(44.8231°N, 4.6583°E)
Time: 17:36:53
(UTC+00:00)

Daily predictions for brighter satellites

Satellite Brightness Start Highest point End
(mag) Time Altitude Azimuth Time Altitude Azimuth Time Altitude Azimuth
SPOT 3 Rocket 3.7 19:57:22 10° SSE 20:02:35 83° WSW 20:07:51 10° NNW
Cosmos 2237 4.4 19:57:51 10° S 20:03:21 50° ESE 20:08:53 10° NE
SJ-6B 4.5 20:02:50 10° SSW 20:06:28 35° W 20:10:13 10° NNW
Cosmos 1455 2.6 20:08:53 10° N 20:12:36 46° ENE 20:16:19 10° SSE
Cosmos 1461 3.8 20:08:05 10° NW 20:12:41 53° WSW 20:17:18 10° SSE
Cosmos 1825 Rocket 4.4 20:11:27 10° SSE 20:15:24 33° E 20:19:25 10° NNE
ATLAS CENTAUR R/B 3.4 20:16:05 10° N 20:18:23 15° NE 20:20:39 10° ENE
Cosmos 1703 3.9 20:16:24 10° SSE 20:19:58 37° E 20:23:34 10° NNE
COSMOS 2428 4.0 20:16:38 10° SSE 20:20:47 21° E 20:24:56 10° NE
Geosat 4.5 20:16:04 10° SSE 20:21:01 60° WSW 20:26:01 10° NW
Cosmos 1812 Rocket 3.5 20:18:32 10° N 20:22:54 88° E 20:27:13 10° S
Cosmos 1844 4.2 20:18:37 10° NNW 20:24:14 49° ENE 20:29:32 11° SE
Cosmos 2322 4.3 20:19:13 10° S 20:24:27 38° ESE 20:29:42 10° NE
Cosmos 1602 Rocket 3.9 20:24:20 10° SSW 20:28:42 70° W 20:33:10 10° N
Cosmos 1709 Rocket 4.4 20:25:30 10° SSE 20:31:28 48° E 20:37:32 10° NNE
Cosmos 2263 Rocket 3.9 20:27:48 10° NW 20:32:24 27° WSW 20:37:00 10° SSW
Nadezhda 1 Rocket 4.1 20:27:08 10° N 20:33:35 89° E 20:39:58 10° S
MetOp-B 4.2 20:28:24 10° SSE 20:33:45 85° ENE 20:39:08 10° NNW
Atlas Centaur 2 3.7 20:29:58 10° SW 20:34:25 22° S 20:38:47 12° SE
Terra 3.3 20:31:40 10° ESE 20:35:22 24° ENE 20:39:09 10° NNE
Cosmos 2219 Rocket 2.9 20:31:50 10° SSE 20:36:41 31° ESE 20:41:34 10° NE
Cosmos 2360 Rocket 2.2 20:32:47 10° SSW 20:38:25 89° ESE 20:44:08 10° NNE
IGS 5A 3.5 20:35:34 11° SSE 20:39:27 68° ENE 20:43:36 10° N
Cosmos 2333 Rocket 2.7 20:41:07 10° S 20:46:24 41° ESE 20:51:43 10° NE
ATLAS 2AS CENTAUR R/B 4.4 20:44:15 10° NNW 20:50:48 29° NNE 20:56:55 10° E
Resurs 01 Rocket 2.9 20:47:13 10° SSW 20:51:19 37° W 20:55:27 10° NNW
Cosmos 1315 Rocket 4.0 20:48:12 10° N 20:51:48 29° ENE 20:54:13 17° ESE
Cosmos 1818 3.8 20:48:20 10° SW 20:53:44 75° NW 20:59:13 10° NNE
Cosmos-2242 3.0 20:51:04 10° N 20:55:27 87° E 20:59:06 15° S
Cosmos 773 Rocket 4.0 20:51:15 10° S 20:56:28 63° ESE 21:01:42 10° NNE
SL-16 R/B 4.1 20:52:34 10° WSW 20:57:37 33° NW 21:02:43 10° N
Cosmos 2221 4.1 20:56:45 10° NNE 21:00:15 23° ENE 21:02:29 16° ESE
ERS-1 Rocket 3.1 20:56:51 17° SSE 21:00:44 64° ENE 21:05:44 10° N
GEOS 3 Rocket 3.7 20:59:05 10° NE 21:04:31 88° NW 21:09:54 10° SW
USA 215 3.2 21:01:25 10° NE 21:07:56 63° SE 21:14:24 10° SW
Cosmos 2278 Rocket 3.4 21:04:00 10° N 21:09:03 32° NE 21:13:09 14° ESE
ATLAS 5 CENTAUR R/B 2.2 21:06:27 10° SW 21:10:31 57° NW 21:15:07 10° NNE
USA 245 4.0 21:08:35 15° SSW 21:11:06 45° W 21:14:57 10° NNW
Meteor 1-11 4.2 21:05:31 10° S 21:11:06 75° E 21:16:48 10° NNE
Cosmos 1844 Rocket 3.1 21:08:34 10° NNW 21:14:02 59° WSW 21:18:16 17° S
Cosmos 1400 Rocket 3.3 21:10:51 10° NNW 21:14:45 54° W 21:17:41 16° S
SPOT 5 2.9 21:13:56 20° SSE 21:17:26 78° ENE 21:22:16 10° N
Lacrosse 5 rocket 4.3 21:17:06 10° NW 21:19:39 15° N 21:22:09 10° NNE
Spot 2 Rocket 4.3 21:16:44 11° S 21:21:21 46° W 21:26:16 10° NNW
USA 81 4.0 21:19:52 16° S 21:24:05 82° E 21:29:23 10° N
Cosmos 2058 4.2 21:25:00 22° ESE 21:26:03 25° E 21:29:26 10° NE
BREEZE M DEB (TANK) 1.5 21:25:13 10° WNW 21:27:33 60° SSW 21:27:39 59° SSW
Cosmos 2181 Rocket 4.0 21:23:22 10° N 21:29:45 88° W 21:34:14 20° S
Cosmos 2074 Rocket 4.2 21:29:15 22° SSE 21:33:13 56° E 21:39:17 10° NNE
SPOT 1/Viking Rocket 4.4 21:31:52 14° SSW 21:35:58 45° W 21:40:55 10° NNW
Cosmos 1953 Rocket 4.3 21:33:12 10° SSW 21:37:22 49° WNW 21:41:36 10° N
Cosmos 1680 Rocket 4.4 21:35:41 26° SE 21:37:25 31° E 21:42:04 10° NE
USA 267 3.6 21:34:05 13° ESE 21:39:57 62° NNE 21:46:25 10° NW
Cosmos 2084 3.5 21:41:45 10° NW 21:46:14 87° NE 21:48:05 35° SE
Cosmos 1842 Rocket 3.4 21:42:53 10° N 21:47:15 81° E 21:49:02 35° SSE
OAO 2 Rocket 4.3 21:43:41 10° WSW 21:48:10 28° S 21:48:29 28° S
JB-3 4.3 21:45:02 10° NNE 21:48:51 61° E 21:49:57 41° SSE
MTI 3.5 21:49:43 10° NNE 21:52:48 75° E 21:53:10 64° SSE
Cosmos 923 Rocket 4.1 21:52:20 30° S 21:54:48 58° ESE 22:00:00 10° NNE
ATLAS CENTAUR R/B 1.1 21:54:01 10° NW 21:57:41 65° WSW 21:58:26 49° S
Cosmos 1825 3.7 21:58:09 22° E 21:58:11 22° E 22:01:09 10° NE
Cosmos 1980 3.8 21:56:55 29° S 21:59:35 55° ESE 22:05:06 10° NNE
Cosmos 967 Rocket 4.4 21:55:33 11° SSW 22:01:44 77° ESE 22:08:13 10° NE
COSMOS 2428 3.2 21:58:56 10° SW 22:04:32 61° WNW 22:10:11 10° NNE
Cosmos 1869 3.4 22:04:13 10° NNW 22:08:11 71° W 22:09:22 43° SSW
NOSS 0 Rocket 3.8 22:07:31 20° SSW 22:11:53 82° ESE 22:18:06 10° NNE
Terra 2.7 22:10:34 25° SSW 22:12:51 42° W 22:17:24 10° NNW
Cosmos 1610 Rocket 4.5 22:11:20 31° S 22:14:35 76° E 22:20:57 10° N
NOSS 3-4 (A) 4.1 22:07:57 10° NW 22:14:53 65° NE 22:19:47 24° SE
NOSS 3-4 (C) 4.1 22:08:04 10° NW 22:14:59 65° NE 22:19:55 24° SE
Cosmos 2237 Rocket 2.1 22:14:58 30° S 22:17:49 72° ESE 22:23:31 10° NNE
Genesis I 3.3 22:18:36 52° ESE 22:18:36 52° ESE 22:22:20 10° NE
Cosmos 2344 3.6 22:16:02 25° S 22:20:23 55° ESE 22:27:59 10° NE
Cosmos 2219 Rocket 3.3 22:15:12 10° SW 22:20:28 42° WNW 22:25:48 10° NNE
BREEZE-M R/B 4.2 22:13:03 10° WNW 22:21:58 45° SW 22:23:37 35° S
Elektron 1 4.1 22:21:21 53° SW 22:22:05 86° SE 22:26:56 10° NE
Atlas Centaur 2 4.0 22:18:01 10° SW 22:21:20 19° SSW 22:21:20 19° SSW
DELTA 2 R/B (1) 3.8 22:23:30 10° WSW 22:28:46 44° SSE 22:30:03 38° SE
Cosmos 2333 Rocket 3.7 22:25:35 10° WSW 22:30:44 34° NW 22:35:57 10° NNE
Cosmos 2184 Rocket 4.5 22:27:10 20° SSW 22:31:25 57° WNW 22:37:38 10° N
Thor Agena Rocket 3.4 22:26:29 10° NNE 22:31:37 76° ESE 22:33:18 43° S
Cosmos 2221 3.7 22:33:55 10° NNW 22:37:52 34° W 22:39:20 27° SW
BREEZE-M DEB (TANK) 2.3 22:37:15 10° WNW 22:40:59 46° NNE 22:41:21 42° NE
Iridium 2 3.5 22:38:16 10° N 22:42:06 81° W 22:42:26 72° SSW
Cosmos 1371 Rocket 4.0 22:37:18 10° NNW 22:42:36 81° ENE 22:44:15 45° SSE
ATLAS 2AS CENTAUR R/B 2.8 22:35:18 10° NW 22:42:55 84° NE 22:46:25 33° SE
Cosmos 1892 3.7 22:41:59 32° WSW 22:43:01 40° WNW 22:46:38 10° N
EO 1 Del DPAF 3.0 22:40:53 10° NNE 22:44:39 85° WNW 22:44:59 73° SSW
Cosmos 1766 Rocket 4.0 22:44:24 43° ESE 22:44:49 44° E 22:49:01 10° NNE
MOS 1-B Rocket 4.3 22:38:54 10° NNE 22:46:38 85° ESE 22:49:57 34° SSW
Okean 3 Rocket 3.7 22:47:03 52° SE 22:47:36 56° E 22:51:57 10° NNE
Aureole 2 Rocket 3.4 22:46:53 10° N 22:48:59 33° NE 22:48:59 33° NE
Cosmos 1328 Rocket 4.3 22:45:41 10° N 22:49:44 38° ENE 22:50:25 35° E
USA 215 4.1 22:44:32 10° NE 22:50:50 51° NNW 22:57:06 10° W
Cosmos 2112 Rocket 4.2 22:48:24 33° SW 22:50:51 73° WNW 22:56:14 10° NNE
Cosmos 1606 3.1 22:48:19 10° N 22:52:07 49° ENE 22:52:19 48° E
Cosmos 2218 Rocket 4.4 22:50:54 36° SE 22:53:03 51° E 22:59:08 10° NNE
Cosmos 2278 Rocket 2.8 22:47:55 10° NW 22:53:17 45° WSW 22:54:59 35° SSW
Cosmos 2297 4.1 22:49:11 10° NNW 22:54:52 58° ENE 22:57:11 34° SE
Cosmos 158 Rocket 4.2 22:52:56 31° SW 22:55:05 60° WNW 22:59:57 10° NNE
Cosmos 2366 rocket 4.3 22:56:35 37° SE 22:58:44 53° E 23:04:52 10° NNE
Cosmos 1420 Rocket 4.5 22:53:36 10° NNW 22:58:46 53° ENE 23:00:36 36° ESE
Lacrosse 5 rocket 4.0 22:57:17 10° NNW 23:00:09 18° NNE 23:02:55 10° ENE
Spot 4 4.1 22:59:07 46° SSW 23:00:13 58° W 23:04:57 10° NNW
Cosmos 1943 Rocket 3.5 22:56:12 10° N 23:01:21 34° NE 23:04:40 19° ESE
SL-16 R/B 2.3 23:00:46 46° SSE 23:02:10 61° ESE 23:07:47 10° NNE
Cosmos 1408 3.7 23:03:24 33° W 23:03:52 35° WNW 23:07:11 10° N
Cosmos 2056 Rocket 3.6 23:01:08 10° NNW 23:06:33 75° WSW 23:07:58 50° S
Cosmos 2341 Rocket 4.1 23:11:47 38° SSW 23:14:20 73° W 23:20:34 10° N
Cosmos 332 Rocket 4.3 23:15:27 10° NNW 23:20:08 50° ENE 23:21:28 38° ESE
Meteor 2-3 Rocket 3.8 23:21:02 47° SSE 23:22:30 65° E 23:28:08 10° NNE
USA 267 3.6 23:21:24 39° S 23:23:05 47° SW 23:29:23 10° WNW
IRIDIUM 104 4.2 23:23:26 53° S 23:24:42 86° W 23:29:58 10° N
Cosmos 2151 3.8 23:23:52 37° WSW 23:24:45 42° WNW 23:28:51 10° N
Helios 1A 3.1 23:24:53 57° ESE 23:25:20 62° ENE 23:29:29 10° N
Cosmos 405 4.1 23:25:57 10° N 23:29:08 34° ENE 23:29:08 34° ENE
SL-8 Rocket 4.1 23:30:58 40° SSW 23:33:17 70° W 23:39:28 10° N
Meteor 1-26 Rocket 4.3 23:27:24 10° N 23:33:27 80° E 23:35:20 46° SSE
Cosmos 1825 3.8 23:32:56 24° W 23:33:34 26° WNW 23:36:47 10° NNW
Cosmos 1452 Rocket 3.6 23:28:21 10° NNW 23:33:37 70° ENE 23:35:06 46° SE
IRIDIUM 114 4.4 23:32:35 50° SSW 23:33:53 72° W 23:39:07 10° N
CZ-4C R/B 4.0 23:27:32 10° NNW 23:34:09 42° NE 23:41:45 10° ESE
Cosmos 1340 2.6 23:34:23 79° NNW 23:34:23 79° NNW 23:38:00 10° N
COSMOS 2455 3.2 23:29:22 10° NNW 23:35:23 62° NE 23:38:24 30° SE
ALOS 2 3.0 23:35:27 46° WSW 23:35:48 47° W 23:40:04 10° NNW
Cosmos 1408 Rocket 3.4 23:35:56 73° SSW 23:36:21 87° W 23:40:47 10° N
Cosmos 1933 3.4 23:34:13 10° NNW 23:38:12 62° W 23:38:13 62° W
Meteor 2-12 Rocket 4.5 23:37:27 43° SSW 23:39:36 75° W 23:45:46 10° N
Cosmos 1151 Rocket 3.2 23:35:29 10° NNW 23:39:45 58° W 23:40:03 56° WSW
Cosmos 44 3.6 23:43:37 38° WSW 23:44:53 53° NW 23:49:14 10° NNE
Cosmos 1500 Rocket 3.7 23:44:49 55° ESE 23:45:11 57° E 23:49:30 10° NNE
APEX 4.3 23:42:50 10° NNW 23:44:21 29° NNW 23:44:21 29° NNW
Cosmos 1727 Rocket 3.9 23:39:39 10° N 23:45:55 87° E 23:48:04 45° S
Cosmos 2369 Rocket 2.8 23:40:35 10° NNW 23:46:02 50° ENE 23:48:49 27° ESE
Resurs 1-4 Rocket 4.5 23:45:21 10° ENE 23:46:39 11° E 23:47:56 10° E
GP-B 3.9 23:43:56 10° NNW 23:48:07 41° W 23:48:50 38° WSW
Cosmos 371 Rocket 3.3 23:45:02 10° NNW 23:49:50 63° WSW 23:50:25 58° SW
SeaSat 1 4.3 23:47:53 10° ENE 23:50:58 16° ESE 23:51:20 16° ESE
Helios 1B rocket 3.0 23:51:21 10° NNE 23:55:18 43° E 23:55:23 43° ESE
